| time (UTC) | temp F | wind direction | speed MPH | gust MPH | rain 1hr in | rain 24hr in | rain mn in | humidity % | barometer mb |
| 20260506220513 | 56 | 108 | 7.0 | 13.0 | 0.00 | 0.00 | 0.00 | 91 | 1013.6 |
| 20260506215512 | 56 | 80 | 7.0 | 14.0 | 0.00 | 0.00 | 0.00 | 91 | 1013.7 |
| 20260506214019 | 56 | 109 | 8.0 | 13.0 | 0.00 | 0.00 | 0.00 | 91 | 1014.0 |
| 20260506213512 | 56 | 114 | 6.0 | 12.0 | 0.00 | 0.00 | 0.00 | 91 | 1014.1 |
| 20260506213019 | 56 | 80 | 6.0 | 12.0 | 0.00 | 0.00 | 0.00 | 91 | 1014.0 |
| 20260506212019 | 56 | 70 | 7.0 | 12.0 | 0.00 | 0.00 | 0.00 | 91 | 1014.1 |
| 20260506211513 | 56 | 107 | 6.0 | 13.0 | 0.00 | 0.00 | 0.00 | 91 | 1014.2 |
| 20260506204512 | 56 | 105 | 7.0 | 13.0 | 0.00 | 0.00 | 0.00 | 91 | 1013.8 |
| 20260506202513 | 56 | 110 | 6.0 | 12.0 | 0.00 | 0.00 | 0.00 | 92 | 1013.8 |
| 20260506201512 | 57 | 110 | 7.0 | 12.0 | 0.00 | 0.00 | 0.00 | 92 | 1013.6 |
| 20260506200512 | 57 | 88 | 8.0 | 14.0 | 0.00 | 0.00 | 0.00 | 92 | 1013.3 |
| 20260506200012 | 57 | 66 | 10.0 | 16.0 | 0.00 | 0.00 | 0.00 | 92 | 1013.3 |
| 20260506195513 | 57 | 106 | 6.0 | 12.0 | 0.00 | 0.00 | 0.00 | 92 | 1013.2 |
| 20260506195020 | 57 | 37 | 6.0 | 13.0 | 0.00 | 0.00 | 0.00 | 93 | 1013.1 |
| 20260506194019 | 57 | 101 | 10.0 | 20.0 | 0.00 | 0.00 | 0.00 | 92 | 1013.0 |
| 20260506193020 | 57 | 97 | 9.0 | 17.0 | 0.00 | 0.00 | 0.00 | 92 | 1012.9 |
| 20260506192021 | 57 | 55 | 10.0 | 17.0 | 0.00 | 0.00 | 0.00 | 92 | 1012.3 |
| 20260506191514 | 57 | 57 | 11.0 | 20.0 | 0.00 | 0.00 | 0.00 | 92 | 1012.3 |
| 20260506191019 | 57 | 95 | 12.0 | 22.0 | 0.00 | 0.00 | 0.00 | 92 | 1012.1 |
| 20260506185513 | 57 | 73 | 12.0 | 18.0 | 0.00 | 0.00 | 0.00 | 91 | 1011.5 |
| 20260506185019 | 58 | 72 | 10.0 | 15.0 | 0.00 | 0.00 | 0.00 | 91 | 1012.0 |
| 20260506184512 | 58 | 85 | 12.0 | 18.0 | 0.00 | 0.00 | 0.00 | 90 | 1012.2 |
| 20260506184019 | 58 | 80 | 11.0 | 17.0 | 0.00 | 0.00 | 0.00 | 90 | 1012.6 |
| 20260506183514 | 58 | 56 | 10.0 | 17.0 | 0.00 | 0.00 | 0.00 | 89 | 1012.8 |
| 20260506183020 | 58 | 56 | 9.0 | 14.0 | 0.00 | 0.00 | 0.00 | 89 | 1012.9 |
| 20260506181512 | 59 | 121 | 8.0 | 16.0 | 0.00 | 0.00 | 0.00 | 87 | 1013.2 |
| 20260506181020 | 59 | 55 | 7.0 | 15.0 | 0.00 | 0.00 | 0.00 | 87 | 1013.2 |
| 20260506175020 | 60 | 86 | 8.0 | 16.0 | 0.00 | 0.00 | 0.00 | 83 | 1013.7 |
| 20260506173020 | 61 | 37 | 7.0 | 13.0 | 0.00 | 0.00 | 0.00 | 78 | 1013.6 |
| 20260506172512 | 61 | 31 | 6.0 | 9.0 | 0.00 | 0.00 | 0.00 | 78 | 1013.7 |
| 20260506172020 | 61 | 72 | 7.0 | 12.0 | 0.00 | 0.00 | 0.00 | 77 | 1013.7 |
| 20260506171512 | 61 | 87 | 7.0 | 12.0 | 0.00 | 0.00 | 0.00 | 76 | 1013.7 |
| 20260506170512 | 62 | 98 | 7.0 | 12.0 | 0.00 | 0.00 | 0.00 | 71 | 1013.6 |
| 20260506170012 | 62 | 78 | 6.0 | 10.0 | 0.00 | 0.00 | 0.00 | 70 | 1013.5 |
| 20260506164512 | 62 | 59 | 7.0 | 12.0 | 0.00 | 0.00 | 0.00 | 65 | 1013.2 |
| 20260506164019 | 63 | 84 | 7.0 | 14.0 | 0.00 | 0.00 | 0.00 | 62 | 1013.3 |
| 20260506163512 | 63 | 45 | 7.0 | 12.0 | 0.00 | 0.00 | 0.00 | 58 | 1013.3 |
| 20260506162513 | 64 | 121 | 7.0 | 14.0 | 0.00 | 0.00 | 0.00 | 58 | 1013.3 |
| 20260506162020 | 64 | 66 | 9.0 | 16.0 | 0.00 | 0.00 | 0.00 | 56 | 1013.3 |
| 20260506161513 | 64 | 26 | 8.0 | 13.0 | 0.00 | 0.00 | 0.00 | 55 | 1013.2 |
| 20260506161020 | 65 | 56 | 8.0 | 15.0 | 0.00 | 0.00 | 0.00 | 55 | 1013.3 |
| 20260506160512 | 65 | 94 | 7.0 | 12.0 | 0.00 | 0.00 | 0.00 | 54 | 1013.4 |
| 20260506154020 | 66 | 73 | 7.0 | 12.0 | 0.00 | 0.00 | 0.00 | 52 | 1013.6 |
| 20260506152512 | 66 | 102 | 7.0 | 13.0 | 0.00 | 0.00 | 0.00 | 53 | 1013.6 |
| 20260506152020 | 67 | 108 | 6.0 | 12.0 | 0.00 | 0.00 | 0.00 | 52 | 1013.5 |
| 20260506151020 | 67 | 134 | 7.0 | 16.0 | 0.00 | 0.00 | 0.00 | 54 | 1013.6 |
| 20260506150512 | 67 | 87 | 7.0 | 14.0 | 0.00 | 0.00 | 0.00 | 55 | 1013.6 |
| 20260506145512 | 68 | 64 | 7.0 | 12.0 | 0.00 | 0.00 | 0.00 | 55 | 1013.7 |
| 20260506145020 | 68 | 102 | 7.0 | 12.0 | 0.00 | 0.00 | 0.00 | 56 | 1013.7 |
| 20260506144512 | 68 | 92 | 7.0 | 12.0 | 0.00 | 0.00 | 0.00 | 57 | 1013.6 |
| 20260506144020 | 68 | 76 | 7.0 | 14.0 | 0.00 | 0.00 | 0.00 | 57 | 1013.8 |
| 20260506142513 | 68 | 86 | 9.0 | 15.0 | 0.00 | 0.00 | 0.00 | 62 | 1013.8 |
| 20260506142019 | 69 | 93 | 7.0 | 12.0 | 0.00 | 0.00 | 0.00 | 62 | 1013.8 |
| 20260506140514 | 69 | 93 | 7.0 | 13.0 | 0.00 | 0.00 | 0.00 | 62 | 1013.8 |
| 20260506135020 | 69 | 39 | 7.0 | 10.0 | 0.00 | 0.00 | 0.00 | 62 | 1013.9 |
| 20260506134512 | 69 | 66 | 4.0 | 12.0 | 0.00 | 0.00 | 0.00 | 61 | 1013.9 |
| 20260506131020 | 69 | 58 | 5.0 | 12.0 | 0.00 | 0.00 | 0.00 | 58 | 1014.1 |
| 20260506125512 | 70 | 67 | 9.0 | 14.0 | 0.00 | 0.00 | 0.00 | 53 | 1013.9 |
| 20260506125021 | 70 | 79 | 7.0 | 12.0 | 0.00 | 0.00 | 0.00 | 55 | 1013.9 |
| 20260506124512 | 70 | 77 | 6.0 | 10.0 | 0.00 | 0.00 | 0.00 | 53 | 1013.9 |
| 20260506122512 | 70 | 95 | 7.0 | 12.0 | 0.00 | 0.00 | 0.00 | 53 | 1014.1 |
| 20260506122020 | 71 | 67 | 6.0 | 14.0 | 0.00 | 0.00 | 0.00 | 52 | 1014.0 |
| 20260506120512 | 71 | 112 | 6.0 | 10.0 | 0.00 | 0.00 | 0.00 | 51 | 1013.9 |
| 20260506120012 | 70 | 103 | 6.0 | 12.0 | 0.00 | 0.00 | 0.00 | 50 | 1013.8 |
| 20260506115513 | 71 | 84 | 7.0 | 15.0 | 0.00 | 0.00 | 0.00 | 49 | 1014.0 |
| 20260506115019 | 72 | 99 | 3.0 | 15.0 | 0.00 | 0.00 | 0.00 | 47 | 1014.1 |
| 20260506114019 | 72 | 127 | 6.0 | 12.0 | 0.00 | 0.00 | 0.00 | 42 | 1014.1 |
| 20260506110512 | 71 | 133 | 2.0 | 6.0 | 0.00 | 0.00 | 0.00 | 39 | 1014.7 |
| 20260506105512 | 71 | 124 | 10.0 | 14.0 | 0.00 | 0.00 | 0.00 | 40 | 1014.8 |
| 20260506105020 | 71 | 61 | 4.0 | 8.0 | 0.00 | 0.00 | 0.00 | 39 | 1014.8 |
| 20260506103019 | 70 | 172 | 5.0 | 12.0 | 0.00 | 0.00 | 0.00 | 43 | 1014.9 |
| 20260506102019 | 69 | 39 | 2.0 | 9.0 | 0.00 | 0.00 | 0.00 | 45 | 1014.9 |
| 20260506101512 | 69 | 33 | 3.0 | 10.0 | 0.00 | 0.00 | 0.00 | 44 | 1015.0 |
| 20260506101019 | 69 | 57 | 6.0 | 12.0 | 0.00 | 0.00 | 0.00 | 44 | 1015.1 |
| 20260506100512 | 69 | 230 | 6.0 | 12.0 | 0.00 | 0.00 | 0.00 | 43 | 1015.1 |
| 20260506095512 | 67 | 75 | 5.0 | 10.0 | 0.00 | 0.00 | 0.00 | 46 | 1015.2 |
| 20260506093513 | 67 | 77 | 3.0 | 8.0 | 0.00 | 0.00 | 0.00 | 49 | 1015.5 |
| 20260506092512 | 67 | 100 | 2.0 | 12.0 | 0.00 | 0.00 | 0.00 | 47 | 1015.3 |
| 20260506092019 | 66 | 105 | 3.0 | 9.0 | 0.00 | 0.00 | 0.00 | 50 | 1015.3 |
| 20260506090012 | 65 | 137 | 2.0 | 7.0 | 0.00 | 0.00 | 0.00 | 51 | 1015.5 |
| 20260506085512 | 65 | 95 | 5.0 | 7.0 | 0.00 | 0.00 | 0.00 | 51 | 1015.6 |
| 20260506083512 | 65 | 70 | 3.0 | 7.0 | 0.00 | 0.00 | 0.00 | 49 | 1015.4 |
| 20260506082512 | 64 | 113 | 4.0 | 9.0 | 0.00 | 0.00 | 0.00 | 50 | 1015.4 |
| 20260506081512 | 64 | 70 | 3.0 | 7.0 | 0.00 | 0.00 | 0.00 | 52 | 1015.3 |
| 20260506081019 | 64 | 93 | 3.0 | 6.0 | 0.00 | 0.00 | 0.00 | 54 | 1015.3 |
| 20260506080512 | 63 | 64 | 1.0 | 3.0 | 0.00 | 0.00 | 0.00 | 55 | 1015.3 |
| 20260506073511 | 63 | 108 | 3.0 | 7.0 | 0.00 | 0.00 | 0.00 | 50 | 1015.0 |
| 20260506073019 | 63 | 109 | 5.0 | 9.0 | 0.00 | 0.00 | 0.00 | 49 | 1015.1 |
| 20260506072511 | 63 | 74 | 2.0 | 3.0 | 0.00 | 0.00 | 0.00 | 47 | 1015.1 |
| 20260506071512 | 62 | 35 | 1.0 | 5.0 | 0.00 | 0.00 | 0.00 | 44 | 1015.2 |
| 20260506071020 | 62 | 147 | 2.0 | 6.0 | 0.00 | 0.00 | 0.00 | 50 | 1015.3 |
| 20260506070512 | 62 | 166 | 3.0 | 6.0 | 0.00 | 0.00 | 0.00 | 45 | 1015.4 |
| 20260506062018 | 59 | 319 | 2.0 | 3.0 | 0.00 | 0.00 | 0.00 | 63 | 1015.6 |
| 20260506061018 | 59 | 335 | 1.0 | 3.0 | 0.00 | 0.00 | 0.00 | 65 | 1015.9 |
| 20260506051019 | 56 | 272 | 4.0 | 7.0 | 0.00 | 0.00 | 0.00 | 72 | 1015.4 |
| 20260506050512 | 56 | 249 | 2.0 | 3.0 | 0.00 | 0.00 | 0.00 | 73 | 1015.3 |
| 20260506045019 | 55 | 277 | 3.0 | 6.0 | 0.00 | 0.00 | 0.00 | 75 | 1015.1 |
| 20260506044511 | 56 | 285 | 2.0 | 6.0 | 0.00 | 0.00 | 0.00 | 74 | 1015.0 |
| 20260506042512 | 57 | 135 | 0.0 | 2.0 | 0.00 | 0.00 | 0.00 | 68 | 1014.6 |
| 20260506041511 | 57 | 118 | 1.0 | 3.0 | 0.00 | 0.00 | 0.00 | 69 | 1014.5 |
| 20260506041019 | 57 | 97 | 3.0 | 5.0 | 0.00 | 0.00 | 0.00 | 72 | 1014.4 |
| 20260506040512 | 57 | 139 | 1.0 | 3.0 | 0.00 | 0.00 | 0.00 | 72 | 1014.5 |
| 20260506040013 | 56 | 180 | 1.0 | 3.0 | 0.00 | 0.00 | 0.00 | 72 | 1014.5 |
| 20260506035512 | 56 | 197 | 2.0 | 3.0 | 0.00 | 0.00 | 0.00 | 72 | 1014.4 |
| 20260506032511 | 56 | 64 | 1.0 | 3.0 | 0.00 | 0.00 | 0.00 | 75 | 1014.6 |
| 20260506031511 | 56 | 225 | 1.0 | 3.0 | 0.00 | 0.00 | 0.00 | 75 | 1014.5 |
| 20260506030511 | 56 | 279 | 2.0 | 3.0 | 0.00 | 0.00 | 0.00 | 75 | 1014.7 |
| 20260506030013 | 55 | 251 | 0.0 | 2.0 | 0.00 | 0.00 | 0.00 | 75 | 1014.7 |
| 20260506025512 | 55 | 275 | 1.0 | 3.0 | 0.00 | 0.00 | 0.00 | 77 | 1014.8 |
| 20260506025017 | 55 | 269 | 1.0 | 3.0 | 0.00 | 0.00 | 0.00 | 79 | 1014.8 |
| 20260506024512 | 55 | 270 | 1.0 | 3.0 | 0.00 | 0.00 | 0.00 | 80 | 1014.9 |
| 20260506024017 | 55 | 316 | 3.0 | 3.0 | 0.00 | 0.00 | 0.00 | 82 | 1014.9 |
| 20260506022511 | 55 | 320 | 2.0 | 3.0 | 0.00 | 0.00 | 0.00 | 81 | 1015.1 |
| 20260506022018 | 55 | 285 | 1.0 | 2.0 | 0.00 | 0.00 | 0.00 | 81 | 1015.0 |
| 20260506021018 | 55 | 309 | 0.0 | 1.0 | 0.00 | 0.00 | 0.00 | 82 | 1014.9 |
| 20260506020011 | 55 | 309 | 1.0 | 2.0 | 0.00 | 0.00 | 0.00 | 82 | 1015.0 |
| 20260506014511 | 56 | 257 | 2.0 | 3.0 | 0.00 | 0.00 | 0.00 | 81 | 1015.2 |
| 20260506013511 | 55 | 226 | 3.0 | 3.0 | 0.00 | 0.00 | 0.00 | 80 | 1015.2 |
| 20260506012511 | 56 | 272 | 1.0 | 5.0 | 0.00 | 0.00 | 0.00 | 77 | 1015.2 |
| 20260506012017 | 57 | 321 | 0.0 | 3.0 | 0.00 | 0.00 | 0.00 | 77 | 1015.2 |
| 20260506011017 | 56 | 80 | 1.0 | 2.0 | 0.00 | 0.00 | 0.00 | 78 | 1015.2 |
| 20260506010511 | 56 | 108 | 1.0 | 3.0 | 0.00 | 0.00 | 0.00 | 79 | 1015.1 |
| 20260506005019 | 56 | 274 | 2.0 | 5.0 | 0.00 | 0.00 | 0.00 | 83 | 1015.5 |
| 20260506001511 | 57 | 37 | 1.0 | 3.0 | 0.00 | 0.00 | 0.00 | 80 | 1015.6 |
| 20260506001018 | 57 | 110 | 2.0 | 3.0 | 0.00 | 0.00 | 0.00 | 80 | 1015.6 |
| 20260506000011 | 57 | 127 | 1.0 | 3.0 | 0.00 | 0.00 | 0.00 | 80 | 1015.6 |
| 20260505235511 | 57 | 96 | 2.0 | 3.0 | 0.00 | 0.00 | 0.00 | 80 | 1015.7 |
| 20260505235017 | 57 | 103 | 2.0 | 3.0 | 0.00 | 0.00 | 0.00 | 80 | 1015.7 |
| 20260505234511 | 57 | 98 | 2.0 | 3.0 | 0.00 | 0.00 | 0.00 | 80 | 1015.8 |
| 20260505234017 | 57 | 128 | 1.0 | 3.0 | 0.00 | 0.00 | 0.00 | 80 | 1015.8 |
| 20260505232511 | 57 | 112 | 1.0 | 2.0 | 0.00 | 0.00 | 0.00 | 79 | 1016.2 |
| 20260505230511 | 56 | 104 | 1.0 | 1.0 | 0.00 | 0.00 | 0.00 | 81 | 1016.4 |
| 20260505230011 | 56 | 104 | 1.0 | 2.0 | 0.00 | 0.00 | 0.00 | 81 | 1016.4 |
| 20260505225513 | 57 | 110 | 1.0 | 2.0 | 0.00 | 0.00 | 0.00 | 81 | 1016.4 |
| 20260505224518 | 57 | 155 | 2.0 | 3.0 | 0.00 | 0.00 | 0.00 | 80 | 1016.5 |
| 20260505222517 | 57 | 147 | 1.0 | 2.0 | 0.00 | 0.00 | 0.00 | 80 | 1016.4 |
| 20260505222023 | 57 | 155 | 1.0 | 2.0 | 0.00 | 0.00 | 0.00 | 80 | 1016.5 |